sat.trackr.live / text

‹ back to catalog

GSAT-11

NORAD 43824 · 2018-100B

PAYLOAD ACTIVE UNKNOWN

§ Identity

Operator
Country
IND
Launch date
2018-12-04
Launch site
FRGUI
Launch vehicle
Mass (kg)
RCS (m²)

Purposes: comms

External: N2YO · Heavens-Above · Gunter

§ Orbital elements

Epoch: 2026-09-20T01:52:37.579872Z

Period
1,436.09 min
Inclination
0.0637°
Eccentricity
0.0006568
Mean motion
1.00272288 rev/d
Perigee alt
35,758.8 km
Apogee alt
35,814.1 km
Semi-major
42,164.6 km
B*
0.0000e+0
RAAN
268.9948°
Arg perigee
210.9354°
Mean anomaly
341.2104°
Rev number
2,842

§ Raw data

GSAT-111 43824U 18100B   26263.07821273 -.00000081  00000+0  00000+0 0  99982 43824   0.0637 268.9948 0006568 210.9354 341.2104  1.00272288 28425

JSON: /api/v1/satellites/43824 · /tle

For live sub-satellite position, see the globe view (requires WebGL).

§ Visibility from observer

Set your observer location to see the next 7 days of passes ≥ 10°. The values pass through the URL so the page stays shareable.

No JS? Fill the form by hand. The geolocation button needs JavaScript.